Chandler, OK

2:27 PM CDT on October 17, 2017 (GMT -0500)
Chandler Municipal

Weather History for KCQB - March, 2014

Change the Weather History Date:

Sunday, March 23, 2014

  Actual Average (KCUH) Record (KCUH)
Temperature  
Mean Temperature 42 °F -  
Max Temperature 51 °F 65 °F 85 °F (1951)
Min Temperature 32 °F 39 °F 20 °F (1968)
Degree Days  
Heating Degree Days 24    
Moisture  
Dew Point 28 °F    
Average Humidity 59    
Maximum Humidity 87    
Minimum Humidity 43    
Precipitation  
Precipitation 0.00 in - - ()
Sea Level Pressure  
Sea Level Pressure 30.37 in    
Wind  
Wind Speed 11 mph (NE)    
Max Wind Speed 17 mph    
Max Gust Speed 30 mph    
Visibility 10 miles    
Events      
Averages and records for this station are not official NWS values.
T = Trace of Precipitation, MM = Missing Value Source: NWS Daily Summary

Daily Weather History Graph

Daily Weather History Graph

Search for Another Location

Airport or City:

Trip Planner

Search our weather history database for the weather conditions in past years. The results will help you decide how hot, cold, wet, or windy it might be!

Date:

Astronomy

Mar. 23, 2014 Rise Set
Actual Time 7:26 AM CDT 7:41 PM CDT
Civil Twilight 7:01 AM CDT 8:07 PM CDT
Nautical Twilight 6:31 AM CDT 8:37 PM CDT
Astronomical Twilight 6:00 AM CDT 9:07 PM CDT
Moon 1:50 AM CDT (3/23) 12:18 PM CDT (3/23)
Length of Visible Light 13h 06m
Length of Day
12h 15m
Waning Gibbous, 54% of the Moon is Illuminated
Mar 23
Waning Gibbous
Mar 23
Last Quarter
Mar 30
New
Apr 7
First Quarter
Apr 15
Full

Hourly Weather History & Observations

Time (CDT) Temp. Windchill Dew Point Humidity Pressure Visibility Wind Dir Wind Speed Gust Speed Precip Events Conditions
12:15 AM 48.2 °F - 28.4 °F 46% 30.29 in 10.0 mi NNE 16.1 mph 24.2 mph N/A   Overcast
12:35 AM 48.2 °F - 28.4 °F 46% 30.30 in 10.0 mi NNE 16.1 mph 23.0 mph N/A   Overcast
12:55 AM 46.4 °F 39.5 °F 26.6 °F 46% 30.31 in 10.0 mi NNE 17.3 mph 25.3 mph N/A   Overcast
1:15 AM 42.8 °F 34.8 °F 23.0 °F 46% 30.32 in 10.0 mi NNE 17.3 mph 29.9 mph N/A   Overcast
1:35 AM 42.8 °F 35.4 °F 23.0 °F 46% 30.33 in 10.0 mi NNE 15.0 mph 23.0 mph N/A   Overcast
1:55 AM 42.8 °F 35.8 °F 23.0 °F 46% 30.35 in 10.0 mi NNE 13.8 mph 23.0 mph N/A   Overcast
2:15 AM 41.0 °F 33.9 °F 21.2 °F 45% 30.35 in 10.0 mi NNE 12.7 mph 24.2 mph N/A   Mostly Cloudy
2:35 AM 41.0 °F 32.8 °F 21.2 °F 45% 30.35 in 10.0 mi NNE 16.1 mph 24.2 mph N/A   Mostly Cloudy
2:55 AM 39.2 °F 31.6 °F 21.2 °F 49% 30.36 in 10.0 mi NNE 12.7 mph 25.3 mph N/A   Scattered Clouds
3:15 AM 39.2 °F 31.6 °F 21.2 °F 49% 30.37 in 10.0 mi NNE 12.7 mph 17.3 mph N/A   Clear
3:35 AM 37.4 °F 30.3 °F 21.2 °F 52% 30.37 in 10.0 mi NNE 10.4 mph 17.3 mph N/A   Clear
3:55 AM 37.4 °F 30.8 °F 19.4 °F 48% 30.37 in 10.0 mi NNE 9.2 mph - N/A   Clear
4:15 AM 35.6 °F 27.5 °F 19.4 °F 52% 30.37 in 10.0 mi North 11.5 mph - N/A   Clear
4:35 AM 35.6 °F 26.6 °F 19.4 °F 52% 30.37 in 10.0 mi North 13.8 mph 18.4 mph N/A   Clear
4:55 AM 35.6 °F 27.1 °F 19.4 °F 52% 30.37 in 10.0 mi North 12.7 mph 18.4 mph N/A   Clear
5:15 AM 35.6 °F 27.1 °F 19.4 °F 52% 30.38 in 10.0 mi NNE 12.7 mph 17.3 mph N/A   Scattered Clouds
5:35 AM 33.8 °F 24.8 °F 21.2 °F 60% 30.39 in 10.0 mi North 12.7 mph - N/A   Clear
5:55 AM 33.8 °F 25.3 °F 21.2 °F 60% 30.38 in 10.0 mi NNE 11.5 mph 18.4 mph N/A   Clear
6:15 AM 33.8 °F 25.3 °F 23.0 °F 65% 30.39 in 10.0 mi NNE 11.5 mph 19.6 mph N/A   Scattered Clouds
6:35 AM 33.8 °F 26.4 °F 23.0 °F 65% 30.40 in 10.0 mi NNE 9.2 mph 16.1 mph N/A   Scattered Clouds
6:55 AM 33.8 °F 26.4 °F 23.0 °F 65% 30.40 in 10.0 mi NNE 9.2 mph 17.3 mph N/A   Clear
7:15 AM 33.8 °F 27.0 °F 23.0 °F 65% 30.41 in 10.0 mi NNE 8.1 mph 18.4 mph N/A   Clear
7:35 AM 32.0 °F 23.0 °F 24.8 °F 75% 30.41 in 10.0 mi NNE 11.5 mph 17.3 mph N/A   Clear
7:55 AM 32.0 °F 23.0 °F 26.6 °F 80% 30.43 in 10.0 mi North 11.5 mph 17.3 mph N/A   Clear
8:15 AM 33.8 °F 23.5 °F 26.6 °F 75% 30.45 in 10.0 mi North 16.1 mph 19.6 mph N/A   Clear
8:35 AM 32.0 °F 23.6 °F 26.6 °F 80% 30.47 in 10.0 mi NNE 10.4 mph 19.6 mph N/A   Clear
8:55 AM 32.0 °F 22.1 °F 28.4 °F 87% 30.47 in 10.0 mi North 13.8 mph - N/A   Scattered Clouds
9:15 AM 33.8 °F 25.8 °F 28.4 °F 81% 30.47 in 10.0 mi NNE 10.4 mph 17.3 mph N/A   Scattered Clouds
9:35 AM 33.8 °F 25.8 °F 26.6 °F 75% 30.47 in 10.0 mi NE 10.4 mph 18.4 mph N/A   Scattered Clouds
9:55 AM 35.6 °F 27.1 °F 28.4 °F 75% 30.48 in 10.0 mi NNE 12.7 mph 19.6 mph N/A   Clear
10:15 AM 35.6 °F 29.2 °F 28.4 °F 75% 30.49 in 10.0 mi NNE 8.1 mph 16.1 mph N/A   Clear
10:35 AM 37.4 °F 31.4 °F 28.4 °F 70% 30.49 in 10.0 mi NNE 8.1 mph 16.1 mph N/A   Clear
10:55 AM 37.4 °F 30.3 °F 28.4 °F 70% 30.49 in 10.0 mi NNE 10.4 mph - N/A   Clear
11:15 AM 37.4 °F 30.8 °F 28.4 °F 70% 30.49 in 10.0 mi NNE 9.2 mph - N/A   Clear
11:35 AM 41.0 °F 34.7 °F 30.2 °F 65% 30.48 in 10.0 mi NNE 10.4 mph - N/A   Clear
11:55 AM 39.2 °F 33.0 °F 28.4 °F 65% 30.48 in 10.0 mi NE 9.2 mph - N/A   Clear
12:15 PM 41.0 °F 34.7 °F 28.4 °F 61% 30.48 in 10.0 mi NE 10.4 mph - N/A   Clear
12:35 PM 42.8 °F 37.5 °F 28.4 °F 57% 30.47 in 10.0 mi NNE 9.2 mph - N/A   Clear
12:55 PM 42.8 °F 38.0 °F 28.4 °F 57% 30.45 in 10.0 mi North 8.1 mph - N/A   Clear
1:15 PM 44.6 °F 40.7 °F 26.6 °F 49% 30.44 in 10.0 mi NE 6.9 mph 16.1 mph N/A   Clear
1:35 PM 44.6 °F 39.7 °F 26.6 °F 49% 30.43 in 10.0 mi NE 9.2 mph 17.3 mph N/A   Clear
1:55 PM 46.4 °F 41.9 °F 28.4 °F 50% 30.41 in 10.0 mi ENE 9.2 mph - N/A   Clear
2:15 PM 46.4 °F 41.5 °F 28.4 °F 50% 30.39 in 10.0 mi NNE 10.4 mph - N/A   Clear
2:35 PM 48.2 °F - 28.4 °F 46% 30.38 in 10.0 mi NE 6.9 mph - N/A   Clear
2:55 PM 50.0 °F - 28.4 °F 43% 30.37 in 10.0 mi NE 9.2 mph - N/A   Clear
3:15 PM 50.0 °F - 30.2 °F 47% 30.35 in 10.0 mi NE 8.1 mph - N/A   Clear
3:35 PM 50.0 °F - 30.2 °F 47% 30.34 in 10.0 mi North 6.9 mph 16.1 mph N/A   Clear
3:55 PM 51.8 °F - 32.0 °F 47% 30.33 in 10.0 mi NNE 11.5 mph 19.6 mph N/A   Clear
4:15 PM 51.8 °F - 32.0 °F 47% 30.32 in 10.0 mi ENE 11.5 mph - N/A   Clear
4:35 PM 50.0 °F - 32.0 °F 50% 30.32 in 10.0 mi East 8.1 mph 16.1 mph N/A   Clear
4:55 PM 51.8 °F - 32.0 °F 47% 30.31 in 10.0 mi East 4.6 mph - N/A   Clear
5:15 PM 51.8 °F - 32.0 °F 47% 30.30 in 10.0 mi NNE 6.9 mph - N/A   Clear
5:35 PM 51.8 °F - 32.0 °F 47% 30.31 in 10.0 mi ENE 9.2 mph - N/A   Clear
5:55 PM 51.8 °F - 32.0 °F 47% 30.30 in 10.0 mi ENE 5.8 mph - N/A   Clear
6:15 PM 50.0 °F - 32.0 °F 50% 30.30 in 10.0 mi NNE 6.9 mph - N/A   Clear
6:35 PM 50.0 °F - 32.0 °F 50% 30.30 in 10.0 mi NE 4.6 mph - N/A   Clear
6:55 PM 50.0 °F - 32.0 °F 50% 30.29 in 10.0 mi East 6.9 mph - N/A   Clear
7:15 PM 48.2 °F - 32.0 °F 54% 30.29 in 10.0 mi ENE 3.5 mph - N/A   Clear
7:35 PM 46.4 °F 45.2 °F 32.0 °F 57% 30.29 in 10.0 mi ENE 3.5 mph - N/A   Clear
7:55 PM 44.6 °F 43.1 °F 32.0 °F 61% 30.29 in 10.0 mi ENE 3.5 mph - N/A   Clear
8:15 PM 42.8 °F 41.1 °F 32.0 °F 66% 30.29 in 10.0 mi East 3.5 mph - N/A   Clear
8:35 PM 42.8 °F 40.1 °F 32.0 °F 66% 30.29 in 10.0 mi East 4.6 mph - N/A   Clear
8:55 PM 42.8 °F 40.1 °F 32.0 °F 66% 30.29 in 10.0 mi East 4.6 mph - N/A   Clear
9:15 PM 41.0 °F 37.1 °F 32.0 °F 70% 30.29 in 10.0 mi East 5.8 mph - N/A   Clear
9:35 PM 41.0 °F 38.0 °F 32.0 °F 70% 30.29 in 10.0 mi ESE 4.6 mph - N/A   Clear
9:55 PM 41.0 °F 38.0 °F 32.0 °F 70% 30.29 in 10.0 mi ESE 4.6 mph - N/A   Clear
10:15 PM 41.0 °F - 32.0 °F 70% 30.29 in 10.0 mi Calm Calm - N/A   Clear
10:35 PM 41.0 °F - 32.0 °F 70% 30.28 in 10.0 mi Calm Calm - N/A   Clear
10:55 PM 39.2 °F - 32.0 °F 75% 30.27 in 10.0 mi Calm Calm - N/A   Clear
11:15 PM 39.2 °F 37.0 °F 32.0 °F 75% 30.27 in 10.0 mi ESE 3.5 mph - N/A   Clear
11:35 PM 41.0 °F 38.0 °F 32.0 °F 70% 30.27 in 10.0 mi SE 4.6 mph - N/A   Clear
11:55 PM 41.0 °F 38.0 °F 32.0 °F 70% 30.27 in 10.0 mi SE 4.6 mph - N/A   Clear